Mt. Pocono, PA

2:56 AM EDT on May 25, 2017 (GMT -0400)
Pocono Mountains Municipal

Weather History for KMPO - November, 2011

Change the Weather History Date:

Wednesday, November 30, 2011

  Actual Average Record
Temperature  
Mean Temperature 37 °F 33 °F  
Max Temperature 43 °F 39 °F 64 °F (1962)
Min Temperature 31 °F 27 °F 0 °F (1929)
Degree Days  
Heating Degree Days 28 32  
Month to date heating degree days 621 791  
Since 1 July heating degree days 1254 1579  
Cooling Degree Days 0 0  
Month to date cooling degree days 0 0  
Year to date cooling degree days 480 314  
Moisture  
Dew Point 30 °F    
Average Humidity 81    
Maximum Humidity 92    
Minimum Humidity 70    
Precipitation  
Precipitation 0.08 in 0.19 in 3.00 in (1923)
Month to date precipitation 4.46 4.61  
Year to date precipitation 76.55 44.91  
Sea Level Pressure  
Sea Level Pressure 29.75 in    
Wind  
Wind Speed 12 mph (West)    
Max Wind Speed 22 mph    
Max Gust Speed 33 mph    
Visibility 10 miles    
Events Snow    
T = Trace of Precipitation, MM = Missing Value Source: NWS Daily Summary

Daily Weather History Graph

Daily Weather History Graph

Search for Another Location

Airport or City:

Trip Planner

Search our weather history database for the weather conditions in past years. The results will help you decide how hot, cold, wet, or windy it might be!

Date:

Astronomy

Nov. 30, 2011 Rise Set
Actual Time 7:06 AM EST 4:33 PM EST
Civil Twilight 6:35 AM EST 5:04 PM EST
Nautical Twilight 6:01 AM EST 5:38 PM EST
Astronomical Twilight 5:28 AM EST 6:11 PM EST
Moon 11:21 AM EST (11/30) 10:30 PM EST (11/30)
Length of Visible Light 10h 28m
Length of Day
9h 27m
Waxing Crescent, 33% of the Moon is Illuminated
Nov 30
Waxing Crescent
Dec 2
First Quarter
Dec 10
Full
Dec 17
Last Quarter
Dec 24
New

Hourly Weather History & Observations

Time (EST) Temp. Windchill Dew Point Humidity Pressure Visibility Wind Dir Wind Speed Gust Speed Precip Events Conditions
3:03 AM 41.0 °F 33.5 °F 37.4 °F 87% 29.56 in 10.0 mi SSW 13.8 mph 24.2 mph N/A   Overcast
3:53 AM 41.0 °F 34.3 °F 37.0 °F 86% 29.56 in 10.0 mi SSW 11.5 mph - N/A   Overcast
5:53 AM 36.0 °F 29.6 °F 33.1 °F 89% 29.61 in 10.0 mi West 8.1 mph - 0.00 in   Overcast
6:04 AM 35.6 °F 29.9 °F 33.8 °F 93% 29.59 in 10.0 mi West 6.9 mph - N/A   Overcast
6:17 AM 35.6 °F 27.5 °F 33.8 °F 93% 29.60 in 10.0 mi West 11.5 mph 17.3 mph N/A   Overcast
7:33 AM 35.6 °F 29.2 °F 32.0 °F 87% 29.62 in 10.0 mi WSW 8.1 mph - N/A   Overcast
7:41 AM 35.6 °F 27.5 °F 32.0 °F 87% 29.63 in 10.0 mi West 11.5 mph 17.3 mph N/A   Overcast
7:53 AM 36.0 °F 29.0 °F 33.1 °F 89% 29.67 in 10.0 mi West 9.2 mph - N/A   Overcast
8:53 AM 37.0 °F 29.8 °F 33.1 °F 86% 29.68 in 10.0 mi WSW 10.4 mph - N/A   Overcast
10:53 AM 39.0 °F 30.6 °F 30.0 °F 70% 29.74 in 10.0 mi WSW 15.0 mph 21.9 mph N/A   Overcast
11:10 AM 37.4 °F 29.3 °F 30.2 °F 75% 29.70 in 10.0 mi West 12.7 mph 18.4 mph N/A   Overcast
4:11 PM 37.4 °F 28.9 °F 30.2 °F 75% 29.68 in 10.0 mi West 13.8 mph 19.6 mph N/A   Overcast
4:53 PM 36.0 °F 28.0 °F 30.9 °F 82% 29.78 in 9.0 mi West 11.5 mph 19.6 mph 0.00 in   Overcast
5:53 PM 36.0 °F 28.0 °F 30.9 °F 82% 29.81 in 10.0 mi West 11.5 mph - N/A   Overcast
6:10 PM 35.6 °F 27.5 °F 30.2 °F 81% 29.76 in 10.0 mi West 11.5 mph - N/A   Overcast
6:49 PM 35.6 °F 27.5 °F 30.2 °F 81% 29.76 in 10.0 mi West 11.5 mph - 0.00 in   Overcast
6:53 PM 36.0 °F 28.0 °F 30.0 °F 79% 29.80 in 10.0 mi West 11.5 mph - 0.00 in   Overcast
7:53 PM 36.0 °F 28.5 °F 28.9 °F 76% 29.81 in 10.0 mi WNW 10.4 mph 20.7 mph N/A   Overcast
8:53 PM 35.1 °F 27.4 °F 28.9 °F 78% 29.86 in 7.0 mi NW 10.4 mph 18.4 mph 0.00 in Snow Light Snow
9:23 PM 33.8 °F 25.3 °F 28.4 °F 81% 29.83 in 8.0 mi NW 11.5 mph 24.2 mph 0.00 in Snow Light Snow
9:53 PM 34.0 °F 25.0 °F 28.9 °F 82% 29.90 in 10.0 mi NW 12.7 mph 19.6 mph 0.00 in   Overcast
10:09 PM 35.6 °F 26.2 °F 28.4 °F 75% 29.86 in 10.0 mi WNW 15.0 mph 26.5 mph N/A   Overcast
10:53 PM 34.0 °F 24.2 °F 27.0 °F 75% 29.93 in 10.0 mi NW 15.0 mph 24.2 mph N/A   Overcast
11:45 PM 32.0 °F 22.1 °F 21.2 °F 64% 29.92 in 10.0 mi NW 13.8 mph 25.3 mph N/A   Scattered Clouds
11:53 PM 30.9 °F 20.7 °F 19.9 °F 64% 29.98 in 10.0 mi NW 13.8 mph 25.3 mph N/A   Scattered Clouds